FW1098 Weather Reports


time (UTC)temp
F
wind
direction
speed
knots
gust
knots
rain 1hr
in
rain 24hr
in
rain mn
in
humidity
%
barometer
mb
20260505183043 80 314 0.9 4.3 0.00 0.00 0.00 43 1016.6
20260505181526 81 146 2.6 11.3 0.00 0.00 0.00 45 1016.9
20260505180034 81 204 0.9 6.1 0.00 0.00 0.00 42 1016.9
20260505174531 80 255 0.9 3.5 0.00 0.00 0.00 45 1016.7
20260505173034 80 75 2.6 8.7 0.00 0.00 0.00 41 1016.6
20260505171528 79 66 0.9 9.6 0.00 0.00 0.00 43 1016.9
20260505170018 79 215 0.9 6.1 0.00 0.00 0.00 44 1017.2
20260505164530 78 219 2.6 7.0 0.00 0.00 0.00 46 1017.4
20260505163022 79 209 1.7 7.0 0.00 0.00 0.00 47 1017.5
20260505161513 78 303 0.0 7.0 0.00 0.00 0.00 53 1017.4
20260505153005 75 235 0.0 6.1 0.00 0.00 0.00 61 1017.9
20260505151559 74 220 1.7 5.2 0.00 0.00 0.00 61 1017.9
20260505150114 73 282 1.7 4.3 0.00 0.00 0.00 63 1017.8
20260505124525 56 227 1.7 3.5 0.00 0.00 0.00 96 1017.9
20260505123039 53 319 0.0 1.7 0.00 0.00 0.00 95 1017.7
20260505121526 50 319 0.0 0.0 0.00 0.00 0.00 94 1017.7
20260505120028 49 319 0.0 0.0 0.00 0.00 0.00 92 1017.6
20260505114522 48 319 0.0 0.0 0.00 0.00 0.00 92 1017.5
20260505113018 47 319 0.0 0.0 0.00 0.00 0.00 91 1017.5
20260505111518 47 22 0.0 0.0 0.00 0.00 0.00 91 1017.4
20260505101509 48 244 0.0 0.0 0.00 0.00 0.00 90 1016.9
20260505100008 48 244 0.0 0.0 0.00 0.00 0.00 90 1016.8
20260505094506 49 244 0.0 0.0 0.00 0.00 0.00 90 1016.8
20260505093005 49 244 0.0 0.0 0.00 0.00 0.00 89 1016.7
20260505091503 49 244 0.0 0.0 0.00 0.00 0.00 89 1016.6
20260505090006 49 244 0.0 0.0 0.00 0.00 0.00 88 1016.6
20260505084502 50 244 0.0 0.0 0.00 0.00 0.00 88 1016.6
20260505083110 50 244 0.0 0.0 0.00 0.00 0.00 87 1016.6
20260505081602 50 244 0.0 0.0 0.00 0.00 0.00 86 1016.5
20260505080058 51 244 0.0 0.0 0.00 0.00 0.00 85 1016.5
20260505074555 51 244 0.0 0.0 0.00 0.00 0.00 84 1016.4
20260505073059 52 244 0.0 0.0 0.00 0.00 0.00 84 1016.2
20260505071555 52 244 0.0 0.0 0.00 0.00 0.00 84 1016.3
20260505070054 53 244 0.0 0.0 0.00 0.00 0.00 84 1016.2
20260505064548 53 244 0.0 0.0 0.00 0.00 0.00 83 1016.4
20260505063046 54 244 0.0 0.0 0.00 0.00 0.00 83 1016.4
20260505061542 54 244 0.0 0.0 0.00 0.00 0.00 83 1016.6
20260505060040 55 244 0.0 0.0 0.00 0.00 0.00 82 1016.8
20260505054539 55 244 0.0 0.0 0.00 0.00 0.00 80 1016.9
20260505053037 56 244 0.0 0.0 0.00 0.00 0.00 80 1016.9
20260505051537 56 244 0.0 0.0 0.00 0.00 0.00 79 1016.9
20260505050109 57 244 0.0 0.0 0.00 0.00 0.00 80 1017.0
20260505041546 58 244 0.0 0.0 0.00 0.00 0.00 78 1017.0
20260505040028 58 244 0.0 0.0 0.00 0.00 0.00 78 1017.0
20260505034526 59 244 0.0 0.0 0.00 0.00 0.00 77 1017.0
20260505033026 59 244 0.0 0.0 0.00 0.00 0.00 76 1017.2
20260505031525 59 244 0.0 0.0 0.00 0.00 0.00 75 1017.2
20260505030030 60 244 0.0 0.0 0.00 0.00 0.00 75 1017.2
20260505024526 60 244 0.0 0.0 0.00 0.00 0.00 74 1017.2
20260505023032 60 244 0.0 0.0 0.00 0.00 0.00 73 1017.1
20260505021527 60 244 0.0 0.9 0.00 0.00 0.00 71 1017.0
20260505020023 60 244 0.0 0.0 0.00 0.00 0.00 68 1016.8
20260505014522 61 244 0.0 1.7 0.00 0.00 0.00 67 1016.7
20260505013023 62 244 0.0 0.0 0.00 0.00 0.00 62 1016.3
20260505011620 63 244 0.0 0.0 0.00 0.00 0.00 60 1016.0
20260505010019 64 244 0.0 0.0 0.00 0.00 0.00 57 1015.9
20260505004531 66 244 0.0 0.0 0.00 0.00 0.00 56 1015.8
20260505003018 66 244 0.0 0.0 0.00 0.00 0.00 54 1015.5
20260505001516 66 244 0.0 0.0 0.00 0.00 0.00 55 1015.4
20260505000027 68 244 0.0 0.0 0.00 0.00 0.00 55 1015.4
20260504234516 69 244 0.0 0.0 0.00 0.00 0.00 56 1015.1
20260504233015 71 244 0.0 0.9 0.00 0.00 0.00 52 1015.1
20260504231514 74 294 0.0 2.6 0.00 0.00 0.00 45 1015.1
20260504230017 75 162 0.0 2.6 0.00 0.00 0.00 45 1015.1
20260504224513 76 167 0.9 2.6 0.00 0.00 0.00 40 1015.2
20260504223012 76 261 0.0 5.2 0.00 0.00 0.00 38 1015.2
20260504221517 77 229 0.9 2.6 0.00 0.00 0.00 35 1015.1
20260504220011 79 229 0.0 8.7 0.00 0.00 0.00 33 1015.0
20260504214512 78 279 0.0 7.0 0.00 0.00 0.00 34 1015.0
20260504213031 79 263 0.0 3.5 0.00 0.00 0.00 32 1015.0
20260504211515 80 242 0.0 1.7 0.00 0.00 0.00 31 1015.0
20260504210011 80 242 0.0 1.7 0.00 0.00 0.00 32 1015.1
20260504204506 80 246 0.0 4.3 0.00 0.00 0.00 28 1015.1
20260504203009 81 251 0.9 2.6 0.00 0.00 0.00 31 1015.1
20260504201505 80 275 0.9 6.1 0.00 0.00 0.00 37 1015.2
20260504200003 80 265 1.7 3.5 0.00 0.00 0.00 30 1015.5
20260504194608 79 288 0.9 8.7 0.00 0.00 0.00 32 1015.6
20260504193109 79 229 0.0 5.2 0.00 0.00 0.00 33 1015.8
20260504191555 79 277 0.9 3.5 0.00 0.00 0.00 30 1016.2
20260504190112 79 227 1.7 5.2 0.00 0.00 0.00 33 1016.3
20260504184559 78 216 1.7 6.1 0.00 0.00 0.00 33 1016.5